Regional Weather Roundup
Issued by NWS

Home | Current Version | Previous Version | Graphics & Text | Print | Product List | Glossary On
Versions: 1 2 3 4 5 6 7 8 9 10 11 12 13 14 15 16 17 18 19 20 21 22 23 24 25 26 27 28 29 30 31 32 33 34 35 36 37 38 39 40 41 42 43 44 45 46 47 48 49 50
000
ASUS43 KOAX 201710
RWRNE

WEATHER ROUNDUP FOR NEBRASKA
NATIONAL WEATHER SERVICE OMAHA NE
1200 PM CDT MON OCT 20 2014

NOTES: SATELLITE DATA IS BEING USED TO AUGMENT CLOUD COVER ABOVE
       12000 FEET.
       "FAIR" INDICATES FEW OR NO CLOUDS BELOW 12,000 FEET WITH NO
       SIGNIFICANT WEATHER AND/OR OBSTRUCTIONS TO VISIBILITY.

  * THESE STATIONS DO NOT REPORT WEATHER SUCH AS RAIN...SNOW OR FOG.

NEZ001>004-019>022-054>056-201800-
NEBRASKA PANHANDLE

CITY           SKY/WX    TMP DP  RH WIND       PRES   REMARKS
SCOTTSBLUFF    SUNNY     63  43  48 SE7       30.11F
ALLIANCE       SUNNY     70  37  29 S18       30.11F
CHADRON        SUNNY     65  45  48 CALM      30.05F
KIMBALL        SUNNY     69  37  31 S16       30.14S
SIDNEY         SUNNY     68  39  34 S15       30.15F
$$

NEZ057>060-069>072-079>082-201800-
SOUTHWEST NEBRASKA

CITY           SKY/WX    TMP DP  RH WIND       PRES   REMARKS
NORTH PLATTE   SUNNY     65  41  41 SE6       30.15F
IMPERIAL       SUNNY     67  44  43 VRB6      30.16S
LEXINGTON      SUNNY     66  43  43 SE7       30.14S
MCCOOK         SUNNY     63  44  50 CALM      30.15F
OGALLALA       SUNNY     64  43  46 SW3       30.15S
$$

NEZ005>010-023>029-035>040-094-201800-
NORTH CENTRAL NEBRASKA

CITY           SKY/WX    TMP DP  RH WIND       PRES   REMARKS
VALENTINE      SUNNY     69  38  32 S12       30.11F
AINSWORTH      SUNNY     67  39  35 S7        30.13S
BROKEN BOW     SUNNY     67  44  43 VRB6      30.14S
O`NEILL        SUNNY     64  43  45 S5        30.14S
ORD            SUNNY     63  42  46 E7        30.13F
THEDFORD       SUNNY     69  40  34 SE9       30.14S
$$

NEZ041-046>049-061>064-073>077-083>087-201800-
SOUTH CENTRAL NEBRASKA

CITY           SKY/WX    TMP DP  RH WIND       PRES   REMARKS
GRAND ISLAND   SUNNY     65  42  43 E8        30.14F
AURORA         SUNNY     65  38  37 E5        30.13F HAZE
HASTINGS       SUNNY     65  41  41 E7        30.13S
HEBRON         SUNNY     66  42  42 E5        30.12S
HOLDREGE       SUNNY     64  43  46 CALM      30.14S
KEARNEY *      SUNNY     64  45  48 E6        30.15S
YORK           SUNNY     64  41  42 E5        30.14R
$$

NEZ011>018-030>034-042>045-201800-
NORTHEAST NEBRASKA

CITY           SKY/WX    TMP DP  RH WIND       PRES   REMARKS
NORFOLK        SUNNY     65  39  38 CALM      30.12F
ALBION         SUNNY     64  41  43 CALM      30.13S
BLAIR          SUNNY     65  40  39 N5        30.10S
COLUMBUS *     SUNNY     64  41  42 NE3       30.14S
FREMONT        SUNNY     65  42  43 CALM      30.12S
TEKAMAH        SUNNY     68  40  35 N7        30.10S
WAYNE          SUNNY     67  39  36 N3        30.11F
$$

NEZ050>053-065>068-078-088>093-201800-
SOUTHEAST NEBRASKA

CITY           SKY/WX    TMP DP  RH WIND       PRES   REMARKS
LINCOLN        SUNNY     66  44  45 VRB3      30.13S
OMAHA EPPLEY   SUNNY     64  44  48 CALM      30.11R
BEATRICE       SUNNY     66  44  43 E8        30.11S
FALLS CITY     SUNNY     69  44  40 E7        30.09R
NEBRASKA CITY  SUNNY     65  36  33 NE3       30.11R
PLATTSMOUTH    SUNNY     64  41  43 NE3       30.11R
$$

NEZ044-045-051>053-067-201800-
OMAHA AREA

CITY           SKY/WX    TMP DP  RH WIND       PRES   REMARKS
OMAHA EPPLEY   SUNNY     64  44  48 CALM      30.11R
BLAIR          SUNNY     65  40  39 N5        30.10S
FREMONT        SUNNY     65  42  43 CALM      30.12S
MILLARD        SUNNY     64  44  49 CALM      30.10S
OFFUTT AFB     SUNNY     64  48  54 VRB5      30.10S
PLATTSMOUTH    SUNNY     64  41  43 NE3       30.11R
WAHOO          FAIR      65  39  39 NW3       30.12S
$$


USA.gov is the U.S. government's official web portal to all federal, state and local government web resources and services.